Location: Abraham Lincoln Continuation High School
(33.9711°N, 117.3662°W)
Time: 06:33:28
(UTC+00:00)

Cosmos 1680 Rocket - Pass Details

Date: 26 January 2021
Orbit: 761 x 780 km, 74.1° (Epoch: 01 March)

Event Time Altitude Azimuth Distance (km) Brightness Sun altitude
Rises 14:16:06 0° 145° (SE) 3,248 7.7 -7.5°
Reaches altitude 10° 14:20:12 10° 114° (ESE) 2,324 7.8 -6.6°
Maximum altitude 14:21:57 12° 94° (E) 2,212 7.4 -6.3°
Drops below altitude 10° 14:23:42 10° 75° (ENE) 2,326 7.0 -6.0°
Sets 14:27:47 0° 44° (NE) 3,255 7.1 -5.2°
